GW7645 Weather Reports


time (UTC)temp
C
wind
direction
speed
KPH
gust
KPH
rain 1hr
cm
rain 24hr
cm
rain mn
cm
humidity
%
barometer
mb
20260906172951 23 100 9.7 11.3 0.00 0.00 0.00 63 1021.3
20260906172447 23 131 8.0 11.3 0.00 0.00 0.00 63 1021.1
20260906171942 23 111 6.4 6.4 0.00 0.00 0.00 63 1021.3
20260906171437 23 86 8.0 11.3 0.00 0.00 0.00 63 1021.4
20260906170932 23 115 9.7 11.3 0.00 0.00 0.00 63 1021.5
20260906170429 23 90 14.5 16.1 0.00 0.00 0.00 63 1021.5
20260906165925 22 134 6.4 9.7 0.00 0.00 0.00 63 1021.2
20260906165425 22 121 11.3 12.9 0.00 0.00 0.00 63 1021.5
20260906164920 22 177 9.7 12.9 0.00 0.00 0.00 63 1021.4
20260906164418 22 98 12.9 17.7 0.00 0.00 0.00 63 1021.4
20260906163915 22 73 6.4 9.7 0.00 0.00 0.00 63 1021.3
20260906163411 22 43 3.2 4.8 0.00 0.00 0.00 63 1021.4
20260906162909 22 101 14.5 14.5 0.00 0.00 0.00 62 1021.3
20260906162407 22 120 14.5 16.1 0.00 0.00 0.00 62 1021.2
20260906161903 22 90 6.4 6.4 0.00 0.00 0.00 63 1021.0
20260906161402 22 70 4.8 17.7 0.00 0.00 0.00 62 1021.3
20260906160901 22 103 11.3 14.5 0.00 0.00 0.00 62 1021.3
20260906160355 22 135 8.0 11.3 0.00 0.00 0.00 62 1021.2
20260906155853 22 153 11.3 12.9 0.00 0.00 0.00 62 1021.2
20260906155347 21 106 9.7 9.7 0.00 0.00 0.00 62 1021.1
20260906154844 22 128 8.0 11.3 0.00 0.00 0.00 62 1021.1
20260906154337 22 120 4.8 4.8 0.00 0.00 0.00 62 1021.2
20260906153836 21 123 8.0 11.3 0.00 0.00 0.00 62 1021.3
20260906153336 21 157 4.8 6.4 0.00 0.00 0.00 62 1021.2
20260906152831 21 140 6.4 9.7 0.00 0.00 0.00 62 1021.0
20260906152325 21 131 6.4 6.4 0.00 0.00 0.00 62 1021.1
20260906151825 21 101 6.4 6.4 0.00 0.00 0.00 62 1021.3
20260906151321 21 105 0.0 1.6 0.00 0.00 0.00 62 1021.4
20260906150816 21 111 6.4 9.7 0.00 0.00 0.00 62 1021.3
20260906150312 21 141 8.0 9.7 0.00 0.00 0.00 62 1021.5
20260906145811 21 148 4.8 4.8 0.00 0.00 0.00 62 1021.5
20260906145309 21 175 1.6 3.2 0.00 0.00 0.00 62 1021.4
20260906144805 20 150 3.2 4.8 0.00 0.00 0.00 62 1021.4
20260906144300 20 146 6.4 6.4 0.00 0.00 0.00 62 1021.3
20260906143759 20 121 9.7 11.3 0.00 0.00 0.00 62 1021.5
20260906143256 20 139 8.0 9.7 0.00 0.00 0.00 62 1021.2
20260906142756 20 102 3.2 3.2 0.00 0.00 0.00 62 1021.5
20260906142251 20 95 4.8 4.8 0.00 0.00 0.00 62 1021.4
20260906141750 20 77 6.4 9.7 0.00 0.00 0.00 62 1021.4
20260906141245 20 156 3.2 4.8 0.00 0.00 0.00 62 1021.5
20260906140744 20 111 6.4 9.7 0.00 0.00 0.00 62 1021.3
20260906140239 20 154 4.8 4.8 0.00 0.00 0.00 62 1021.5
20260906135736 20 123 8.0 9.7 0.00 0.00 0.00 62 1021.3
20260906135232 20 83 6.4 9.7 0.00 0.00 0.00 62 1021.1
20260906134727 20 110 8.0 11.3 0.00 0.00 0.00 62 1021.1
20260906134223 20 80 6.4 6.4 0.00 0.00 0.00 62 1021.2
20260906133718 19 122 4.8 6.4 0.00 0.00 0.00 62 1021.1
20260906133214 19 135 11.3 12.9 0.00 0.00 0.00 62 1021.0
20260906132709 20 99 9.7 11.3 0.00 0.00 0.00 62 1020.9
20260906132204 20 93 4.8 4.8 0.00 0.00 0.00 62 1020.6
20260906131700 19 205 3.2 4.8 0.00 0.00 0.00 62 1020.8
20260906131155 19 91 3.2 4.8 0.00 0.00 0.00 62 1020.6
20260906130650 19 105 3.2 6.4 0.00 0.00 0.00 62 1020.5
20260906130145 19 125 3.2 4.8 0.00 0.00 0.00 62 1020.6
20260906125642 19 133 8.0 11.3 0.00 0.00 0.00 62 1020.6
20260906125142 19 63 4.8 6.4 0.00 0.00 0.00 62 1020.5
20260906124637 19 124 3.2 4.8 0.00 0.00 0.00 62 1020.7
20260906124133 19 102 3.2 4.8 0.00 0.00 0.00 62 1020.7
20260906123631 19 107 11.3 12.9 0.00 0.00 0.00 62 1020.5
20260906123127 19 123 9.7 12.9 0.00 0.00 0.00 62 1020.6
20260906122626 19 155 8.0 9.7 0.00 0.00 0.00 62 1020.6
20260906122122 19 162 4.8 6.4 0.00 0.00 0.00 62 1020.5
20260906121617 19 126 4.8 4.8 0.00 0.00 0.00 62 1020.7
20260906121114 19 158 9.7 11.3 0.00 0.00 0.00 62 1020.6
20260906120609 19 123 3.2 4.8 0.00 0.00 0.00 62 1020.5
20260906120107 19 118 6.4 6.4 0.00 0.00 0.00 62 1020.5
20260906115607 19 134 4.8 4.8 0.00 0.00 0.00 62 1020.3
20260906115102 19 104 14.5 16.1 0.00 0.00 0.00 62 1020.2
20260906114601 19 149 3.2 3.2 0.00 0.00 0.00 62 1020.3
20260906114057 19 93 4.8 4.8 0.00 0.00 0.00 62 1020.1
20260906113556 19 113 3.2 4.8 0.00 0.00 0.00 62 1020.2
20260906113051 20 127 4.8 4.8 0.00 0.00 0.00 62 1020.0
20260906112546 20 75 1.6 4.8 0.00 0.00 0.00 62 1019.8
20260906112042 20 117 4.8 6.4 0.00 0.00 0.00 62 1020.0
20260906111542 20 119 4.8 6.4 0.00 0.00 0.00 62 1020.0
20260906111037 20 116 3.2 6.4 0.00 0.00 0.00 62 1019.7
20260906110536 20 153 6.4 6.4 0.00 0.00 0.00 62 1019.7
20260906110036 20 116 8.0 9.7 0.00 0.00 0.00 62 1020.0
20260906105531 20 107 4.8 6.4 0.00 0.00 0.00 62 1019.8
20260906105027 20 134 6.4 6.4 0.00 0.00 0.00 62 1019.8
20260906104525 20 163 1.6 3.2 0.00 0.00 0.00 62 1019.6
20260906104021 20 105 6.4 6.4 0.00 0.00 0.00 62 1019.5
20260906103519 20 95 3.2 4.8 0.00 0.00 0.00 62 1019.6
20260906103014 20 138 8.0 11.3 0.00 0.00 0.00 62 1019.5
20260906102514 20 136 3.2 3.2 0.00 0.00 0.00 62 1019.6
20260906102015 20 107 8.0 11.3 0.00 0.00 0.00 62 1019.4
20260906101509 20 97 9.7 11.3 0.00 0.00 0.00 62 1019.5
20260906101004 20 133 6.4 6.4 0.00 0.00 0.00 62 1019.7
20260906100500 20 88 9.7 12.9 0.00 0.00 0.00 62 1019.4
20260906095954 20 142 6.4 6.4 0.00 0.00 0.00 62 1019.6
20260906095449 20 98 3.2 4.8 0.00 0.00 0.00 62 1019.3
20260906094944 20 121 12.9 14.5 0.00 0.00 0.00 62 1019.2
20260906094438 20 91 11.3 14.5 0.00 0.00 0.00 62 1019.1
20260906093934 20 144 1.6 3.2 0.00 0.00 0.00 62 1019.0
20260906093430 20 96 4.8 4.8 0.00 0.00 0.00 62 1018.9
20260906092930 20 93 1.6 3.2 0.00 0.00 0.00 62 1018.9
20260906092429 20 172 0.0 1.6 0.00 0.00 0.00 62 1018.7
20260906091925 20 120 1.6 3.2 0.00 0.00 0.00 62 1018.8
20260906091421 20 85 3.2 3.2 0.00 0.00 0.00 62 1018.7
20260906090917 20 159 3.2 4.8 0.00 0.00 0.00 62 1019.0
20260906090412 20 97 3.2 4.8 0.00 0.00 0.00 62 1018.7
20260906085907 20 129 3.2 3.2 0.00 0.00 0.00 62 1018.7
20260906085405 20 119 3.2 3.2 0.00 0.00 0.00 62 1018.8
20260906084905 20 120 3.2 3.2 0.00 0.00 0.00 62 1019.0
20260906084400 20 102 4.8 4.8 0.00 0.00 0.00 62 1018.9
20260906083854 20 115 6.4 6.4 0.00 0.00 0.00 62 1019.1
20260906083349 20 142 1.6 3.2 0.00 0.00 0.00 62 1019.1
20260906082849 20 146 6.4 6.4 0.00 0.00 0.00 62 1019.0
20260906082344 20 143 1.6 1.6 0.00 0.00 0.00 62 1019.0
20260906081840 20 129 3.2 4.8 0.00 0.00 0.00 62 1018.8
20260906081335 20 112 1.6 3.2 0.00 0.00 0.00 62 1018.8
20260906080832 20 72 1.6 3.2 0.00 0.00 0.00 62 1019.0
20260906080328 20 130 1.6 1.6 0.00 0.00 0.00 62 1018.8
20260906075827 21 99 4.8 6.4 0.00 0.00 0.00 62 1018.9
20260906075327 21 100 1.6 1.6 0.00 0.00 0.00 62 1018.8
20260906074823 21 97 6.4 6.4 0.00 0.00 0.00 62 1019.0
20260906074322 21 183 0.0 0.0 0.00 0.00 0.00 62 1019.1
20260906073821 21 150 1.6 3.2 0.00 0.00 0.00 62 1018.9
20260906073322 21 138 3.2 3.2 0.00 0.00 0.00 62 1019.1
20260906072818 21 104 0.0 1.6 0.00 0.00 0.00 62 1018.8
20260906072314 21 175 1.6 1.6 0.00 0.00 0.00 62 1019.0
20260906071809 21 139 1.6 3.2 0.00 0.00 0.00 62 1018.8
20260906071304 21 103 4.8 6.4 0.00 0.00 0.00 62 1018.9
20260906070801 21 123 3.2 3.2 0.00 0.00 0.00 62 1019.1
20260906070256 21 109 1.6 3.2 0.00 0.00 0.00 62 1019.1
20260906065755 21 60 1.6 3.2 0.00 0.00 0.00 62 1019.0
20260906065251 21 154 1.6 1.6 0.00 0.00 0.00 62 1019.0
20260906064747 21 139 1.6 1.6 0.00 0.00 0.00 62 1019.1
20260906064243 21 141 6.4 6.4 0.00 0.00 0.00 62 1019.1
20260906063737 21 47 4.8 4.8 0.00 0.00 0.00 62 1019.5
20260906063233 21 170 1.6 3.2 0.00 0.00 0.00 62 1019.4
20260906062728 21 25 3.2 4.8 0.00 0.00 0.00 62 1019.4
20260906062227 21 70 0.0 1.6 0.00 0.00 0.00 62 1019.3
20260906061723 21 97 6.4 6.4 0.00 0.00 0.00 62 1019.5
20260906061219 21 109 3.2 3.2 0.00 0.00 0.00 62 1019.5
20260906060714 21 129 3.2 4.8 0.00 0.00 0.00 62 1019.5
20260906060212 21 68 1.6 3.2 0.00 0.00 0.00 62 1019.6
20260906055707 21 46 3.2 4.8 0.00 0.00 0.00 62 1019.6
20260906055202 21 143 1.6 3.2 0.00 0.00 0.00 62 1019.4
20260906054658 21 152 3.2 4.8 0.00 0.00 0.00 62 1019.6
20260906054158 21 132 4.8 6.4 0.00 0.00 0.00 62 1019.5
20260906053655 21 104 0.0 1.6 0.00 0.00 0.00 62 1019.5
20260906053150 21 23 3.2 3.2 0.00 0.00 0.00 62 1019.4
20260906052645 21 55 1.6 3.2 0.00 0.00 0.00 62 1019.4
20260906052141 21 47 1.6 3.2 0.00 0.00 0.00 62 1019.3
20260906051638 22 347 4.8 4.8 0.00 0.00 0.00 62 1019.2
20260906051137 22 97 1.6 1.6 0.00 0.00 0.00 62 1019.1
20260906050633 22 257 0.0 0.0 0.00 0.00 0.00 62 1019.0
20260906050128 22 67 4.8 4.8 0.00 0.00 0.00 62 1019.1
20260906045626 22 44 3.2 4.8 0.00 0.00 0.00 62 1019.2
20260906045122 22 129 1.6 3.2 0.00 0.00 0.00 62 1019.2
20260906044618 22 164 1.6 1.6 0.00 0.00 0.00 62 1019.3
20260906044113 22 321 1.6 1.6 0.00 0.00 0.00 62 1019.4
20260906043609 22 358 6.4 9.7 0.00 0.00 0.00 62 1019.0
20260906043104 22 140 3.2 4.8 0.00 0.00 0.00 62 1019.1
20260906042603 21 125 3.2 4.8 0.00 0.00 0.00 62 1019.1
20260906042058 21 118 3.2 4.8 0.00 0.00 0.00 62 1019.4
20260906041554 21 64 1.6 3.2 0.00 0.00 0.00 62 1019.2
20260906041049 21 298 3.2 3.2 0.00 0.00 0.00 62 1019.4
20260906040544 21 324 3.2 3.2 0.00 0.00 0.00 62 1019.4
20260906040039 21 205 0.0 0.0 0.00 0.00 0.00 62 1019.1
20260906035534 21 154 1.6 1.6 0.00 0.00 0.00 62 1019.1
20260906035031 21 197 0.0 0.0 0.00 0.00 0.00 62 1019.0
20260906034530 21 268 3.2 3.2 0.00 0.00 0.00 62 1019.2
20260906034025 21 173 0.0 0.0 0.00 0.00 0.00 62 1019.1
20260906033520 21 210 0.0 0.0 0.00 0.00 0.00 62 1019.1
20260906033016 21 303 0.0 1.6 0.00 0.00 0.00 62 1019.2
20260906032513 21 249 0.0 1.6 0.00 0.00 0.00 62 1019.0
20260906032012 22 88 1.6 1.6 0.00 0.00 0.00 62 1019.1
20260906031508 22 73 1.6 3.2 0.00 0.00 0.00 62 1018.9
20260906031003 22 354 4.8 4.8 0.00 0.00 0.00 62 1018.6
20260906030457 22 227 0.0 0.0 0.00 0.00 0.00 62 1018.6
20260906025957 22 233 0.0 0.0 0.00 0.00 0.00 63 1018.6
20260906025457 22 203 0.0 0.0 0.00 0.00 0.00 63 1018.5
20260906024956 22 230 0.0 0.0 0.00 0.00 0.00 63 1018.6
20260906024456 22 255 1.6 1.6 0.00 0.00 0.00 63 1018.6
20260906023956 22 207 0.0 0.0 0.00 0.00 0.00 63 1018.3
20260906023452 22 198 0.0 0.0 0.00 0.00 0.00 63 1018.2
20260906022947 22 241 0.0 0.0 0.00 0.00 0.00 63 1018.3
20260906022442 22 242 1.6 1.6 0.00 0.00 0.00 63 1018.4
20260906021937 22 198 0.0 0.0 0.00 0.00 0.00 63 1017.9
20260906021438 22 181 3.2 3.2 0.00 0.00 0.00 63 1018.0
20260906020932 22 175 1.6 1.6 0.00 0.00 0.00 63 1018.2
20260906020427 22 288 1.6 3.2 0.00 0.00 0.00 63 1018.5
20260906015921 22 304 3.2 3.2 0.00 0.00 0.00 63 1018.1
20260906015421 23 354 3.2 4.8 0.00 0.00 0.00 63 1018.1
20260906014920 23 152 0.0 0.0 0.00 0.00 0.00 63 1018.0
20260906014420 23 182 0.0 0.0 0.00 0.00 0.00 63 1017.8
20260906013917 23 176 0.0 0.0 0.00 0.00 0.00 63 1017.7
20260906013412 23 182 0.0 0.0 0.00 0.00 0.00 63 1017.7
20260906012908 23 184 0.0 0.0 0.00 0.00 0.00 63 1017.7
20260906012402 23 169 1.6 1.6 0.00 0.00 0.00 63 1017.5
20260906011901 23 199 0.0 0.0 0.00 0.00 0.00 63 1017.5
20260906011356 23 183 0.0 0.0 0.00 0.00 0.00 63 1017.4
20260906010852 23 117 3.2 3.2 0.00 0.00 0.00 63 1017.3
20260906010348 23 60 3.2 4.8 0.00 0.00 0.00 63 1017.2
20260906005843 23 66 4.8 4.8 0.00 0.00 0.00 63 1017.3
20260906005342 23 152 6.4 6.4 0.00 0.00 0.00 63 1017.2
20260906004841 23 41 6.4 9.7 0.00 0.00 0.00 63 1017.2
20260906004336 24 56 1.6 3.2 0.00 0.00 0.00 63 1017.2
20260906003831 24 100 9.7 11.3 0.00 0.00 0.00 63 1017.1
20260906003326 24 33 6.4 9.7 0.00 0.00 0.00 63 1017.0
20260906002822 24 32 4.8 4.8 0.00 0.00 0.00 63 1016.9
20260906002321 24 57 4.8 4.8 0.00 0.00 0.00 63 1016.8
20260906001817 25 66 0.0 0.0 0.00 0.00 0.00 63 1016.8
20260906001312 25 57 3.2 4.8 0.00 0.00 0.00 63 1016.8
20260906000813 25 52 1.6 3.2 0.00 0.00 0.00 63 1016.8
20260906000307 25 40 1.6 3.2 0.00 0.00 0.00 63 1016.7
20260905235802 25 100 6.4 6.4 0.00 0.00 0.00 63 1016.8
20260905235306 25 114 3.2 3.2 0.00 0.00 0.00 63 1016.8
20260905234758 25 86 3.2 4.8 0.00 0.00 0.00 63 1016.7
20260905234253 25 116 3.2 4.8 0.00 0.00 0.00 63 1016.9
20260905233748 25 92 8.0 11.3 0.00 0.00 0.00 63 1016.5
20260905233248 25 94 4.8 6.4 0.00 0.00 0.00 63 1016.7
20260905232747 25 158 6.4 9.7 0.00 0.00 0.00 63 1016.5
20260905232243 25 39 3.2 4.8 0.00 0.00 0.00 63 1016.5
20260905231739 25 56 3.2 4.8 0.00 0.00 0.00 63 1016.4
20260905231234 25 38 8.0 9.7 0.00 0.00 0.00 63 1016.4
20260905230730 25 77 3.2 4.8 0.00 0.00 0.00 63 1016.4
20260905230228 25 30 6.4 9.7 0.00 0.00 0.00 63 1016.5
20260905225727 25 35 6.4 6.4 0.00 0.00 0.00 63 1016.3
20260905225223 25 87 4.8 6.4 0.00 0.00 0.00 63 1016.4
20260905224722 25 84 4.8 6.4 0.00 0.00 0.00 63 1016.3
20260905224217 26 101 3.2 4.8 0.00 0.00 0.00 63 1016.5
20260905223714 26 131 3.2 4.8 0.00 0.00 0.00 63 1016.7
20260905223210 26 44 6.4 6.4 0.00 0.00 0.00 63 1016.9
20260905222706 26 39 6.4 9.7 0.00 0.00 0.00 63 1016.9
20260905222205 26 46 6.4 9.7 0.00 0.00 0.00 63 1016.7
20260905221701 26 18 8.0 11.3 0.00 0.00 0.00 63 1016.5
20260905221158 26 62 3.2 4.8 0.00 0.00 0.00 63 1016.5
20260905220653 26 30 1.6 3.2 0.00 0.00 0.00 63 1016.7
20260905220149 26 65 3.2 4.8 0.00 0.00 0.00 63 1016.5
20260905215648 26 120 1.6 1.6 0.00 0.00 0.00 63 1016.8
20260905215144 26 52 6.4 6.4 0.00 0.00 0.00 63 1016.7
20260905214640 26 24 4.8 6.4 0.00 0.00 0.00 63 1016.9
20260905214135 26 35 6.4 9.7 0.00 0.00 0.00 63 1016.8
20260905213630 26 55 1.6 1.6 0.00 0.00 0.00 63 1016.9
20260905213125 26 58 1.6 1.6 0.00 0.00 0.00 63 1017.0
20260905212621 26 70 3.2 3.2 0.00 0.00 0.00 63 1016.8
20260905212120 26 72 1.6 1.6 0.00 0.00 0.00 63 1016.8
20260905211615 26 75 3.2 3.2 0.00 0.00 0.00 63 1016.8
20260905211111 26 37 4.8 4.8 0.00 0.00 0.00 63 1016.8
20260905210607 27 70 9.7 12.9 0.00 0.00 0.00 63 1016.5
20260905205601 27 34 6.4 11.3 0.00 0.00 0.00 63 1016.8
20260905205100 27 51 3.2 6.4 0.00 0.00 0.00 63 1016.8
20260905204555 26 36 6.4 6.4 0.00 0.00 0.00 63 1016.7
20260905204050 26 73 8.0 12.9 0.00 0.00 0.00 63 1017.0
20260905203550 26 69 4.8 6.4 0.00 0.00 0.00 63 1016.8
20260905203045 26 40 3.2 6.4 0.00 0.00 0.00 63 1016.9
20260905202540 27 49 6.4 6.4 0.00 0.00 0.00 63 1017.0
20260905202036 26 59 3.2 4.8 0.00 0.00 0.00 63 1017.0
20260905201532 27 94 4.8 6.4 0.00 0.00 0.00 63 1016.9
20260905201031 27 50 6.4 9.7 0.00 0.00 0.00 63 1017.0
20260905200527 27 56 3.2 3.2 0.00 0.00 0.00 63 1017.3
20260905200026 27 25 12.9 14.5 0.00 0.00 0.00 63 1017.2
20260905195520 27 23 3.2 3.2 0.00 0.00 0.00 63 1017.3
20260905195016 27 53 6.4 9.7 0.00 0.00 0.00 64 1017.5
20260905194516 27 333 9.7 12.9 0.00 0.00 0.00 63 1017.8
20260905194016 27 48 4.8 4.8 0.00 0.00 0.00 63 1017.8
20260905193516 27 30 1.6 3.2 0.00 0.00 0.00 63 1017.8
20260905193011 27 33 4.8 4.8 0.00 0.00 0.00 63 1017.9
20260905192506 27 27 3.2 3.2 0.00 0.00 0.00 63 1017.8
20260905192002 27 184 1.6 3.2 0.00 0.00 0.00 63 1018.1
20260905191501 26 351 6.4 6.4 0.00 0.00 0.00 63 1018.2
20260905191000 26 349 11.3 12.9 0.00 0.00 0.00 63 1018.2
20260905190458 26 345 11.3 16.1 0.00 0.00 0.00 63 1018.2
20260905185957 26 18 12.9 16.1 0.00 0.00 0.00 63 1018.2
20260905185452 25 26 6.4 6.4 0.00 0.00 0.00 63 1018.2
20260905184951 25 20 4.8 6.4 0.00 0.00 0.00 63 1018.1
20260905184446 25 138 1.6 1.6 0.00 0.00 0.00 63 1018.4
20260905183945 25 356 11.3 12.9 0.00 0.00 0.00 63 1018.3
20260905183439 25 355 4.8 6.4 0.00 0.00 0.00 63 1018.3
20260905182934 25 40 3.2 4.8 0.00 0.00 0.00 63 1018.3
20260905182433 24 356 3.2 3.2 0.00 0.00 0.00 63 1018.3
20260905181929 24 1 6.4 9.7 0.00 0.00 0.00 63 1018.4
20260905181429 24 33 3.2 3.2 0.00 0.00 0.00 63 1018.4
20260905180928 23 37 6.4 9.7 0.00 0.00 0.00 63 1018.4
20260905180423 23 31 4.8 6.4 0.00 0.00 0.00 63 1018.4
20260905175918 23 26 4.8 6.4 0.00 0.00 0.00 63 1018.5
20260905175418 23 352 9.7 11.3 0.00 0.00 0.00 63 1018.5
20260905174913 23 14 4.8 6.4 0.00 0.00 0.00 63 1018.6
20260905174409 23 354 6.4 6.4 0.00 0.00 0.00 63 1018.4
20260905173905 23 42 8.0 9.7 0.00 0.00 0.00 63 1018.4
20260905173401 23 48 6.4 9.7 0.00 0.00 0.00 63 1018.4